Weather in Ziryanskoe

Russia / Tomsk District     56°49′44″N   86°37′31″E
temp.,
°C
wind,
m/s
gust,
m/s
humid.,
%
clouds,
%
prec.,
mm/h
press.,
hPa
HPBL,
m
29 january, sat
sat2901:00−17s249776 0.0 103274
04:00−21ssw2410045 0.0 103343
07:00−22ssw249960 0.0 103340
10:00−19ssw2598100 0.0 103376
13:00−14sw259270 0.0 1032190
16:00−13s23945 0.0 103285
19:00−19ssw229956 0.0 103323
22:00−20ssw2210026 0.0 103420
30 january, sun
sun3001:00−21ssw22100100 0.0 103420
04:00−22ssw2210060 0.0 103517
07:00−23s2210056 0.0 103511
10:00−23sse2210053 0.0 103516
13:00−13se229263 0.0 1033125
16:00−12ese239479 0.0 103355
19:00−17se2498100 0.0 103241
22:00−18se2497100 0.0 103246
31 january, mon
mon3101:00−20se229852 0.0 103231
04:00−21se229919 0.0 103231
07:00−22se2210052 0.0 103229
10:00−20sse2310058 0.0 103238
13:00−10sse23855 0.0 1031109
16:00−8se23905 0.0 103158
19:00−14sse229622 0.0 103233
22:00−16s229730 0.0 103227
1 february, tue
tue101:00−18s229753 0.0 103221
04:00−18s229890 0.0 103330
07:00−17s2498100 0.0 103347
10:00−17s249794 0.0 103457
13:00−10ssw3691100 0.0 1034197
16:00−9ssw3693100 0.0 1035272
19:00−12s3496100 0.0 103659
22:00−13ssw2596100 0.0 103678
2 february, wed
wed201:00−16ssw2297100 0.0 103731
04:00−17ssw2298100 0.0 103731
07:00−16s2397100 0.0 103748
10:00−14ssw249787 0.0 103773
13:00−10ssw249378 0.1 1036184
16:00−9s239465 0.0 1036128
19:00−11s239878 0.1 103652
22:00−11ssw239779 0.1 103664